• Processing (Info)

  • MPEC 2023-F66 : 2023 FQ1

    The following Minor Planet Electronic Circular may be linked-to from your own Web pages, but must not otherwise be redistributed electronically.

    A form allowing access to any MPEC is at the bottom of this page.


    Read MPEC 2023-F65 Read MPEC 2023-F67


    M.P.E.C. 2023-F66                                Issued 2023 March 20, 10:45 UT
    
         The Minor Planet Electronic Circulars contain information on unusual
             minor planets, routine data on comets and natural satellites,
             and occasional editorial announcements.  They are published
        on behalf of Division F of the International Astronomical Union by the
              Minor Planet Center, Smithsonian Astrophysical Observatory,
                              Cambridge, MA 02138, U.S.A.
    			  
                 Prepared using the Tamkin Foundation Computer Network
    
                                  MPC@CFA.HARVARD.EDU
                URL https://www.minorplanetcenter.net/    ISSN 1523-6714
    
                                    2023 FQ1                                 
    
    
    Observations:
         K23F01Q 1C2023 03 14.38128 12 44 39.70 -06 55 28.2          21.2 GVEF066G96
         K23F01Q 1C2023 03 14.39150 12 44 39.63 -06 54 40.5          21.2 GVEF066G96
         K23F01Q 1C2023 03 14.39661 12 44 39.63 -06 54 16.2          20.7 GVEF066G96
         K23F01Q* C2023 03 18.39122312 44 38.173-01 54 25.52         21.47GVEF066V00
         K23F01Q  C2023 03 18.39619112 44 38.123-01 54 04.10         21.52GVEF066V00
         K23F01Q  C2023 03 18.40115312 44 38.058-01 53 42.68         21.44GVEF066V00
         K23F01Q  C2023 03 18.40611712 44 38.008-01 53 20.94         21.63GVEF066V00
         K23F01Q KC2023 03 18.44652 12 44 37.54 -01 50 26.9          22.1 RoEF066291
         K23F01Q KC2023 03 18.45863 12 44 37.41 -01 49 35.0          22.8 RoEF066291
         K23F01Q KC2023 03 18.47082 12 44 37.33 -01 48 41.9          22.9 RoEF066291
         K23F01Q |C2023 03 19.26965 12 44 34.28 -00 51 31.2          21.2 GVEF066807
         K23F01Q |C2023 03 19.27889 12 44 34.21 -00 50 52.6          21.2 GVEF066807
         K23F01Q |C2023 03 19.28814 12 44 34.11 -00 50 13.5          21.2 GVEF066807
         K23F01Q |C2023 03 20.31638 12 44 27.97 +00 21 10.1          21.5 GVEF066807
         K23F01Q |C2023 03 20.32563 12 44 27.84 +00 21 47.9          21.4 GVEF066807
         K23F01Q |C2023 03 20.33487 12 44 27.72 +00 22 25.9          21.4 GVEF066807
         K23F01Q KC2023 03 20.33574 12 44 28.55 +00 22 06.7          22.0 RoEF066291
         K23F01Q KC2023 03 20.34347 12 44 28.43 +00 22 38.9                oEF066291
    
    Observer details:
    291 LPL/Spacewatch II.  Observers A. F. Tubbiolo, T. H. Bressi.  1.8-m f/2.7
        reflector + CCD.
    807 Cerro Tololo Observatory, La Serena.  Observers T. Linder, R. Holmes, L.
        Horn.  1.00-m f/10.0 astrograph + CCD.
    G96 Mt. Lemmon Survey.  Observer D. Rankin.  Measurers B. Gray, D. Rankin, F.
        C. Shelly.  1.5-m reflector + 10K CCD.
    V00 Kitt Peak-Bok.  Observer H. Groeller.  Measurers M. J. Brucker, E. J.
        Christensen, C. E. Woodward, D. Fay, J. B. Fazekas, D. C. Fuls, A. R.
        Gibbs, A. D. Grauer, H. Groeller, J. K. Hogan, R. A. Kowalski, S. M.
        Larson, G. J. Leonard, R. S. McMillan, D. Rankin, R. L. Seaman, A.
        Serrano, F. C. Shelly, K. W. Wierzchos.  2.25-m reflector + 4x4K mosaic
        CCD.
    
    Orbital elements:
    2023 FQ1                                                 Earth MOID = 0.2856 AU
    Epoch 2023 Feb. 25.0 TT = JDT 2460000.5                 Veres                   
    M  10.16579              (2000.0)            P               Q                  
    n   0.22285405     Peri.  300.94455     -0.50908886     -0.86070846             
    a   2.6943604      Node   179.61587     +0.85882904     -0.50773413             
    e   0.5849187      Incl.   27.33673     -0.05693164     +0.03724240             
    P   4.42           H   22.56          G   0.15           U   8                  
    Residuals in seconds of arc
    230314 G96  0.1+  0.1-    230318 V00  0.0   0.3+    230319 807  0.2+  0.1-
    230314 G96  0.2-  0.2-    230318 291  0.4-  0.2-    230320 807  0.1+  0.2+
    230314 G96  0.1+  0.2+    230318 291  0.5-  0.5-    230320 807  0.1-  0.0
    230318 V00  0.0   0.0     230318 291  0.2+  0.1+    230320 807  0.1-  0.0
    230318 V00  0.1+  0.0     230319 807 (0.8-  0.3+)   230320 291  0.3-  0.6-
    230318 V00  0.1-  0.0     230319 807  0.0   0.1-    230320 291  0.4-  0.1-
    
    Ephemeris:
    2023 FQ1                 a,e,i = 2.69, 0.58, 27                  q = 1.1184
    Date    TT    R. A. (2000) Decl.     Delta      r    Elong.  Phase     V
    2023 02 18    12 26 48.9 -38 23 06   0.3708  1.2148   119.6    45.0    22.5
    ...
    2023 03 05    12 42 12.2 -19 39 10   0.3539  1.2944   143.9    26.8    22.1
    ...
    2023 03 13    12 44 32.9 -08 44 00   0.3695  1.3432   157.9    16.2    21.9
    ...
    2023 03 19    12 44 35.9 -01 10 48   0.3944  1.3821   166.7     9.6    21.9
    2023 03 20    12 44 30.5 -00 00 50   0.3996  1.3887   167.8     8.7    21.9
    2023 03 21    12 44 24.0 +01 07 18   0.4052  1.3954   168.7     8.1    21.9
    ...
    2023 03 27    12 43 26.8 +07 14 23   0.4444  1.4363   169.0     7.6    22.1
    ...
    2023 04 04    12 42 00.0 +13 29 05   0.5114  1.4927   161.0    12.6    22.7
    ...
    2023 04 19    12 41 04.2 +20 10 49   0.6722  1.6024   145.1    21.0    23.8
    
    M. P. C. Staff               (C) Copyright 2023 MPC           M.P.E.C. 2023-F66
    


    Read MPEC 2023-F65 Read MPEC 2023-F67


    MPEC number:

    Enter an MPEC number in one of the following forms:

    • 1997-B01 (the full form)
    • J97B01 (the packed version of the full form)
    • B01 (the abbreviated form)